Regional Weather Roundup
Issued by NWS

Home | Current Version | Previous Version | Graphics & Text | Print | Product List | Glossary Off
Versions: 1 2 3 4 5 6 7 8 9 10 11 12 13 14 15 16 17 18 19 20 21 22 23 24 25 26 27 28 29 30 31 32 33 34 35 36 37 38 39 40 41 42 43 44 45 46 47 48 49 50

000
ASUS43 KTOP 241608
RWRKS

WEATHER ROUNDUP FOR KANSAS
NATIONAL WEATHER SERVICE GOODLAND KS
1100 AM CDT FRI OCT 24 2014

NOTE:  "FAIR" INDICATES FEW OR NO CLOUDS BELOW 12,000 FEET WITH NO
SIGNIFICANT WEATHER AND/OR OBSTRUCTIONS TO VISIBILITY.

KSZ001>006-013>018-027>032-041>047-241700-
NORTHWEST KANSAS

CITY           SKY/WX    TMP DP  RH WIND       PRES   REMARKS
GOODLAND       MOSUNNY   74  43  32 W5        30.10R
HAYS           PTSUNNY   63  55  77 SW7       30.05R
HILL CITY      PTSUNNY   65  55  70 W5        30.03R
RUSSELL        CLOUDY    64  59  83 SW10      30.02S
$$

KSZ061>065-074>080-084>089-241700-
SOUTHWEST KANSAS

CITY           SKY/WX    TMP DP  RH WIND       PRES   REMARKS
DODGE CITY     SUNNY     68  57  68 SW9       30.09S
ELKHART          N/A     70  51  51 W7          N/A
GARDEN CITY    SUNNY     67  51  56 W10       30.10R
GREAT BEND     PTSUNNY   64  59  82 SW7       30.06R
LIBERAL        SUNNY     66  55  68 CALM      30.14R
PRATT          PTSUNNY   64  61  88 SW8       30.08S
$$

KSZ066>073-081>083-090>101-241700-
SOUTHEAST KANSAS

CITY           SKY/WX    TMP DP  RH WIND       PRES   REMARKS
CHANUTE        PTSUNNY   65  58  78 S16       30.09S
COFFEYVILLE    MOSUNNY   67  58  72 S10       30.10F
HUTCHINSON     CLOUDY    64  60  87 S8        30.06F FOG
MEDICINE LODGE   N/A     63  60  90 S9        30.08S
NEWTON         CLOUDY    64  55  72 S10       30.09R
PARSONS        PTSUNNY   67  58  72 SW12      30.11F
WICHITA INTL   PTSUNNY   67  59  75 SW12      30.07S
WICHITA JABRA  CLOUDY    65  59  81 S9        30.08R
WICHITA MCCONL PTSUNNY   66  64  93 S10       30.08S
WINFIELD       MOSUNNY   67  60  78 S12       30.10S
$$

KSZ007>012-019>026-033>040-048>060-102>105-241700-
NORTHEAST KANSAS

CITY           SKY/WX    TMP DP  RH WIND       PRES   REMARKS
CONCORDIA      CLOUDY    64  61  90 SW9       30.00S
EMPORIA        CLOUDY    65  60  84 S12       30.05S
LAWRENCE       CLOUDY    61  58  90 S7        30.05S FOG
MANHATTAN      CLOUDY    66  61  84 SW12      30.02R
OLATHE IND     PTSUNNY   63  59  87 S13       30.06F
OLATHE EXE     PTSUNNY   63  59  87 SW10      30.05S
SALINA         CLOUDY    65  61  87 S10       30.04R
TOPEKA BILLARD PTSUNNY   65  61  87 SW8       30.04R
TOPEKA FORBES  PTSUNNY   64  60  87 S12       30.04R
$$



USA.gov is the U.S. government's official web portal to all federal, state and local government web resources and services.